{"data":{"norad_id":48244,"epoch":"2026-05-25T03:15:41.620896Z","epoch_age_seconds":70129,"freshness":"FRESH","line1":"1 48244U 21031AL  26145.13589839 -.00000204  00000+0 -58386-3 0  9993","line2":"2 48244  87.8940 294.2885 0001773 101.4737 258.6592 13.14501687245205","mean_motion":13.14501687,"eccentricity":0.0001773,"inclination_deg":87.894,"raan_deg":294.2885,"arg_perigee_deg":101.4737,"mean_anomaly_deg":258.6592,"bstar":-0.00058386,"rev_number":24520,"period_min":109.54721581883,"perigee_km":1204.4500044824,"apogee_km":1207.1392666404,"semimajor_km":7583.9316355614,"source":"CELESTRAK","updated_at":"2026-05-25T13:38:22.440720Z"}}